WetterOnline ( https://www.wetteronline.de )

Wetter aktuell Arkona

Aktuelles Wetter: Kap Arkona/Rügen (42m)

6-stündlich | Neueste Meldungen
Ortszeit Temperatur Wetter
Mo, 21.10. 20:00 13.1° C bedeckt
Mo, 21.10. 14:00 13.0° C leichter Regen
Mo, 21.10. 8:00 11.6° C wolkig
Mo, 21.10. 2:00 11.1° C leichter Regen
So, 20.10. 20:00 12.2° C Regen
So, 20.10. 14:00 12.8° C bedeckt
So, 20.10. 8:00 11.2° C wolkig
So, 20.10. 2:00 12.4° C bedeckt
Ortszeit Temperatur Wetter
Mo, 21.10. 23:00 13.0° C bewölkt
Mo, 21.10. 22:50 13.0° C bewölkt
Mo, 21.10. 22:40 13.2° C bewölkt
Mo, 21.10. 22:30 13.2° C bewölkt
Mo, 21.10. 22:20 13.2° C bewölkt
Mo, 21.10. 22:10 13.3° C bewölkt
Mo, 21.10. 22:00 13.5° C bedeckt
Mo, 21.10. 21:30 13.7° C bedeckt
Mo, 21.10. 21:00 13.2° C bedeckt
Mo, 21.10. 20:30 13.2° C bedeckt
Mo, 21.10. 20:00 13.1° C bedeckt
Ortszeit Relative Feuchte Sichtweite
Mo, 21.10. 20:00 98% -
Mo, 21.10. 14:00 91% 35 km
Mo, 21.10. 8:00 92% 40 km
Mo, 21.10. 2:00 94% 30 km
So, 20.10. 20:00 99% 3.2 km
So, 20.10. 14:00 93% 28 km
So, 20.10. 8:00 96% 29 km
So, 20.10. 2:00 90% 45 km
Ortszeit Relative Feuchte Sichtweite
Mo, 21.10. 23:00 97% 3.6 km
Mo, 21.10. 22:50 97% -
Mo, 21.10. 22:40 97% -
Mo, 21.10. 22:30 96% 5.0 km
Mo, 21.10. 22:20 96% -
Mo, 21.10. 22:10 95% -
Mo, 21.10. 22:00 95% 6 km
Mo, 21.10. 21:30 94% 7 km
Mo, 21.10. 21:00 98% 2.9 km
Mo, 21.10. 20:30 98% 3.4 km
Mo, 21.10. 20:00 98% 3.9 km
Ortszeit Niederschlagsmenge Niederschlagsart
Mo, 21.10. 20:00 0.1 l/m2 in 12 Std. Regen
Mo, 21.10. 14:00 0.1 l/m2 in 6 Std. Regen
Mo, 21.10. 8:00 4 l/m2 in 12 Std. Regen
Mo, 21.10. 2:00 2 l/m2 in 6 Std. Regen
So, 20.10. 20:00 0.1 l/m2 in 12 Std. Regen
So, 20.10. 14:00 0.1 l/m2 in 6 Std. Regen
So, 20.10. 8:00 0.1 l/m2 in 12 Std. Regen
So, 20.10. 2:00 0.1 l/m2 in 6 Std. Regen
Ortszeit Niederschlagsmenge Niederschlagsart
Mo, 21.10. 23:00 0.0 l/m2 in 1 Std. -
Mo, 21.10. 22:50 keine Meldung -
Mo, 21.10. 22:40 keine Meldung -
Mo, 21.10. 22:30 0.0 l/m2 in 1 Std. -
Mo, 21.10. 22:20 keine Meldung -
Mo, 21.10. 22:10 keine Meldung -
Mo, 21.10. 22:00 0.0 l/m2 in 1 Std. -
Mo, 21.10. 21:30 0.0 l/m2 in 1 Std. -
Mo, 21.10. 21:00 0.0 l/m2 in 1 Std. -
Mo, 21.10. 20:30 0.0 l/m2 in 1 Std. -
Mo, 21.10. 20:00 0.0 l/m2 in 1 Std. Regen
Ortszeit Stärke Spitze Richtung
km/h Bft. km/h Grad Sektor
Mo, 21.10. 20:00 13 3 41 240° SW
Mo, 21.10. 14:00 24 4 46 80° O
Mo, 21.10. 8:00 29 5 47 70° O
Mo, 21.10. 2:00 22 4 32 40° NO
So, 20.10. 20:00 7 2 14 70° O
So, 20.10. 14:00 9 2 20 180° S
So, 20.10. 8:00 14 3 29 210° SW
So, 20.10. 2:00 24 4 46 200° S
Ortszeit Stärke Spitze Richtung
km/h Bft. km/h Grad Sektor
Mo, 21.10. 23:00 14 3 25 240° SW
Mo, 21.10. 22:50 14 3 - 240° SW
Mo, 21.10. 22:40 18 3 - 240° SW
Mo, 21.10. 22:30 17 3 22 240° SW
Mo, 21.10. 22:20 17 3 - 240° SW
Mo, 21.10. 22:10 17 3 - 240° SW
Mo, 21.10. 22:00 14 3 36 240° SW
Mo, 21.10. 21:30 26 4 37 260° W
Mo, 21.10. 21:00 18 3 22 250° W
Mo, 21.10. 20:30 15 3 19 240° SW
Mo, 21.10. 20:00 13 3 19 240° SW
Ortszeit Untergrenze Bedeckung Gattung
total tief tief mittel hoch
Mo, 21.10. 20:00 240 m 8/8 8/8 - - -
Mo, 21.10. 14:00 2100 m 8/8 6/8 - - -
Mo, 21.10. 8:00 1500 m 8/8 1/8 - - -
Mo, 21.10. 2:00 30 m 8/8 8/8 - - -
So, 20.10. 20:00 <30 m 8/8 0/8 - - -
So, 20.10. 14:00 1800 m 8/8 8/8 - - -
So, 20.10. 8:00 1500 m 8/8 3/8 - - -
So, 20.10. 2:00 1200 m 8/8 8/8 - - -
Ortszeit Bedeckungsgrad in Achtel und Wolkenuntergrenze
Mo, 21.10. 23:00 7(450m) 7(4500m)
Mo, 21.10. 22:50 7(450m) 7(4500m)
Mo, 21.10. 22:40 7(480m) 8(4500m)
Mo, 21.10. 22:30 7(480m) 7(4500m)
Mo, 21.10. 22:20 7(480m) 7(4500m)
Mo, 21.10. 22:10 7(480m)
Mo, 21.10. 22:00 8(390m)
Mo, 21.10. 21:30 8(270m)
Mo, 21.10. 21:00 3(30m) 8(300m)
Mo, 21.10. 20:30 3(30m) 8(300m)
Mo, 21.10. 20:00 8(240m) 8(270m)
Ortszeit Luftdruck NN (hPa) Tendenz (hPa in 3 Std.)
Mo, 21.10. 20:00 1019 + 2,0
Mo, 21.10. 14:00 1018 - 0,1
Mo, 21.10. 8:00 1017 + 1,0
Mo, 21.10. 2:00 1015 + 0,2
So, 20.10. 20:00 1014 + 1,3
So, 20.10. 14:00 1012 + 0,4
So, 20.10. 8:00 1009 + 0,7
So, 20.10. 2:00 1008 + 0,4
Ortszeit Luftdruck NN (hPa) Tendenz (hPa in 3 Std.)
Mo, 21.10. 23:00 1020 + 0,4
Mo, 21.10. 22:50 1020 keine Meldung
Mo, 21.10. 22:40 1020 keine Meldung
Mo, 21.10. 22:30 1020 + 1,0
Mo, 21.10. 22:20 1020 keine Meldung
Mo, 21.10. 22:10 1019 keine Meldung
Mo, 21.10. 22:00 1020 + 1,2
Mo, 21.10. 21:30 1020 + 1,4
Mo, 21.10. 21:00 1020 + 1,3
Mo, 21.10. 20:30 1020 + 1,6
Mo, 21.10. 20:00 1019 + 2,0
Ortszeit Schneehöhe (cm)
Mo, 21.10. 20:00 0
Mo, 21.10. 14:00 0
Mo, 21.10. 8:00 0
Mo, 21.10. 2:00 0
So, 20.10. 20:00 0
So, 20.10. 14:00 0
So, 20.10. 8:00 0
So, 20.10. 2:00 0
Ortszeit Schneehöhe (cm)
Mo, 21.10. 23:00 0
Mo, 21.10. 22:50 0
Mo, 21.10. 22:40 0
Mo, 21.10. 22:30 0
Mo, 21.10. 22:20 0
Mo, 21.10. 22:10 0
Mo, 21.10. 22:00 0
Mo, 21.10. 21:30 0
Mo, 21.10. 21:00 0
Mo, 21.10. 20:30 0
Mo, 21.10. 20:00 0
Link zu dieser Seite / Seite empfehlen

Das Wetter in ...